{"data":{"norad_id":65608,"epoch":"2026-09-20T22:00:03.000096Z","epoch_age_seconds":75853,"freshness":"FRESH","line1":"1 65608U 25207S   26263.91670139 -.00018117  00000+0 -56024-3 0  9995","line2":"2 65608  97.2853 326.4740 0001768  90.6258 279.9335 15.33440483  5793","mean_motion":15.33440483,"eccentricity":0.0001768,"inclination_deg":97.2853,"raan_deg":326.474,"arg_perigee_deg":90.6258,"mean_anomaly_deg":279.9335,"bstar":-0.00056024,"rev_number":579,"period_min":93.906481272935,"perigee_km":464.3466488942,"apogee_km":466.76657895608,"semimajor_km":6843.6936139251,"source":"CELESTRAK","updated_at":"2026-09-21T09:00:35.656271Z"}}